Regional Weather Roundup
Issued by NWS

Home | Current Version | Previous Version | Text Only | Print | Product List | Glossary On
Versions: 1 2 3 4 5 6 7 8 9 10 11 12 13 14 15 16 17 18 19 20 21 22 23 24 25 26 27 28 29 30 31 32 33 34 35 36 37 38 39 40 41 42 43 44 45 46 47 48 49 50
000
ASUS44 KFWD 070815
RWRTX
NORTH TEXAS HOURLY WEATHER ROUNDUP
NATIONAL WEATHER SERVICE FORT WORTH TX
200 AM CST SUN FEB 07 2016

NOTE: "FAIR" INDICATES FEW OR NO CLOUDS BELOW 12,000 FEET WITH NO
SIGNIFICANT WEATHER AND/OR OBSTRUCTIONS TO VISIBILITY.

TXZ118-119-070900-
DALLAS/FORT WORTH METROPLEX

CITY           SKY/WX    TMP DP  RH WIND       PRES   REMARKS
DFW AIRPORT    CLEAR     36  30  79 S9        30.28F WCI  29
DALLAS LOVE    CLEAR     37  34  89 SE5       30.30F WCI  33
FTW MEACHAM    CLEAR     38  32  79 S6        30.29F WCI  33
DAL-EXECUTIVE  CLEAR     39  33  79 S3        30.29F
FTW-ALLIANCE   CLEAR     35  31  85 S5        30.27F WCI  31
FTW-NAS-JRB    CLEAR     36  31  82 S10       30.30F WCI  28
FTW-SPINKS     CLEAR     35  31  85 S6        30.32F WCI  30
ARLINGTON      CLEAR     35  30  82 SE3       30.30F
GRAND PRAIRIE  CLEAR     37  32  83 S5        30.32F WCI  33
ADDISON        CLEAR     38  34  88 S5        30.30F WCI  34
MESQUITE       CLEAR     34  33  96 S5        30.32F WCI  29
LANCASTER      CLEAR     33  30  88 CALM      30.33F
$$

TXZ091>094-102>105-117-120-121-131>134-070900-
NORTH CENTRAL TEXAS

CITY           SKY/WX    TMP DP  RH WIND       PRES   REMARKS
SHRMAN/DENISON CLEAR     40  34  80 S9        30.28F WCI  34
GAINESVILLE    CLEAR     35  31  86 SW6       30.28F WCI  30
BOWIE          CLEAR     33  31  91 S5        30.25F WCI  29
BRIDGEPORT     CLEAR     39  35  83 SW5       30.29F WCI  36
DECATUR        PTCLDY    40  31  71 S13       30.27F WCI  33
DENTON         CLEAR     32  29  88 S8        30.27F WCI  25
MCKINNEY       CLEAR     35  31  85 S7        30.29F WCI  29
GREENVILLE     CLEAR     37  34  87 SW5       30.30F WCI  34
ROCKWALL       CLEAR     37  35  91 SW7       30.30F WCI  32
TERRELL        CLEAR     33  31  92 CALM      30.32F
WAXAHACHIE     CLEAR     36  35  96 CALM      30.32F
CLEBURNE         N/A     36  34  93 S7        30.32F WCI  30
GRANBURY       CLEAR     37  32  83 S3        30.32F
$$

TXZ083>090-098>101-113>116-127>130-139>142-154-155-070900-
WESTERN NORTH TEXAS

CITY           SKY/WX    TMP DP  RH WIND       PRES   REMARKS
WICHITA FALLS  CLEAR     34  26  72 S14       30.21F WCI  25
WF-KICKAPOO    CLEAR     36  27  70 S6        30.24F WCI  31
VERNON         CLEAR     37  22  53 SW6       30.20F WCI  32
ABILENE        CLEAR     37  19  48 S10       30.25F WCI  30
ABILENE-DYESS  CLEAR     31  19  59 S13       30.22F WCI  22
BRECKENRIDGE   CLEAR     39  27  62 S7        30.25F WCI  34
GRAHAM         CLEAR     35  30  80 CALM      30.23F
MINERAL WELLS  CLEAR     32  29  88 SE8       30.28F WCI  25
STEPHENVILLE   CLEAR     32  30  92 S3        30.31F
COMANCHE       CLOUDY    34  29  82 S6        30.30F WCI  29
BROWNWOOD      CLOUDY    27  23  86 CALM      30.30F
COLEMAN        CLOUDY    37  18  46 S6        30.29F WCI  32
$$

TXZ143>147-156>162-174-175-070900-
CENTRAL TEXAS

CITY           SKY/WX    TMP DP  RH WIND       PRES   REMARKS
WACO           CLEAR     29  28  96 SW5       30.34F WCI  24
WACO-MCGREGOR  CLEAR     31  29  92 SW8       30.34F WCI  23
HILLSBORO      CLEAR     32  30  90 SE5       30.33S WCI  28
CORSICANA      PTCLDY    36  32  85 S3        30.34F FOG
MEXIA          CLEAR     36  33  89 S3        30.33S
HEARNE         CLEAR     30  29  97 CALM      30.37S
CAMERON        CLEAR     36  34  92 CALM      30.35F
TEMPLE         CLEAR     32  31  96 CALM      30.35S FOG
KILLEEN        CLEAR     32  31  93 SE5       30.32F WCI  28
KILLEEN-SKYLRK CLEAR     35  33  92 CALM      30.34F
FORT HOOD      CLEAR     37  33  87 SW3       30.31F
GATESVILLE     CLEAR     32  30  93 CALM      30.35F
HAMILTON       CLEAR     32  32 100 S6        30.31F WCI  27
LAMPASAS       CLOUDY    34  31  91 SW3       30.31F
$$

TXZ095>097-106>112-122>126-135>138-148>153-164>167-070900-
EAST TEXAS

CITY           SKY/WX    TMP DP  RH WIND       PRES   REMARKS
PARIS          CLEAR     36  27  69 SW6       30.28F WCI  31
SULPHUR SPRNGS CLEAR     38  35  88 CALM      30.32F
MOUNT PLEASANT CLEAR     35  34  96 SW3       30.33S
GILMER         CLEAR     32  31  96 CALM      30.32S
MINEOLA        CLEAR     32  30  93 CALM      30.34R
TYLER          CLEAR     36  33  89 SW3       30.31F
LONGVIEW       CLEAR     32  31  96 S6        30.31F WCI  26
MARSHALL       CLEAR     30  28  93 CALM      30.34F
ATHENS         CLEAR     32  32 100 CALM      30.33S
PALESTINE      CLEAR     32  31  96 CALM      30.35S
JACKSONVILLE   CLEAR     38  35  88 S3        30.33F
HENDERSON      CLEAR     30  30 100 CALM      30.34S
CENTER         FAIR      32  31  97 CALM      30.33S
NACOGDOCHES    CLEAR     28  27  93 E3        30.33F
LUFKIN         FOG       30  29  96 SE3       30.34F VSB 1/4
$$

SUPPLEMENTAL OBSERVATIONS (CENTRAL)

CITY           SKY/WX    TMP DP  RH WIND       PRES   REMARKS
LAKE TEXOMA      N/A     43  34  70 SW10        N/A  WCI  37
PAT MAYSE LAKE   N/A     43  36  75 S7          N/A  WCI  39
ATHENS           N/A     34  32  93 CALM        N/A
LAKE LIMESTONE   N/A     34  32  93 W1          N/A
MCGREGOR         N/A     32  32 100 SW1         N/A
TEMPLE           N/A     37  32  81 W5          N/A  WCI  34
$$

SUPPLEMENTAL OBSERVATIONS (WEST)

CITY           SKY/WX    TMP DP  RH WIND       PRES   REMARKS
MILLERS CREEK    N/A     36  27  69 SW7         N/A  WCI  30
POSSUM KINGDOM   N/A     39  27  60 S12         N/A  WCI  32
GRANBURY         N/A     36  32  87 S3          N/A
COMANCHE         N/A     34  23  64 S6          N/A  WCI  29
HAMBY            N/A     37  21  52 S10         N/A  WCI  30
IVIE RESERVOIR   N/A     32  18  55 S3          N/A
COLORADO BEND    N/A     36  30  80 W3          N/A
$$

SUPPLEMENTAL OBSERVATIONS (EAST)

CITY           SKY/WX    TMP DP  RH WIND       PRES   REMARKS
CLARKSVILLE      N/A     36  32  87 SW1         N/A
TEXARKANA        N/A     30  27  86 CALM        N/A
LINDEN           N/A     34  32  93 CALM        N/A
CADDO LAKE       N/A     32  28  86 CALM        N/A
GILMER           N/A     34  30  86 CALM        N/A
HENDERSON        N/A     30  30 100 SW2         N/A
N SABINE NF      N/A     32  30  93 MISG        N/A
S SABINE NF      N/A     32  30  93 CALM        N/A
$$

SUPPLEMENTAL OBSERVATIONS ARE A COLLECTION OF AUTOMATED INSTRUMENTS
THAT ARE MAINTAINED BY A VARIETY OF FEDERAL AND STATE AGENCIES.
CERTAIN ELEMENTS...SUCH AS HUMIDITY VALUES AND SUSTAINED WIND
SPEEDS...MAY BE APPROXIMATED.




USA.gov is the U.S. government's official web portal to all federal, state and local government web resources and services.